Location: Ferintosh
(52.7647°N, 112.9692°W)
Time: 00:25:15
(UTC+00:00)

Vanguard 1 Rocket - Pass Details

Date: 24 May 2024
Orbit: 649 x 4221 km, 34.3° (Epoch: 13 June)

Event Time Altitude Azimuth Distance (km) Brightness Sun altitude
Rises 18:38:45 0° 252° (WSW) 7,693 12.1 56.8°
Reaches altitude 10° 18:45:20 10° 244° (WSW) 6,135 11.8 57.1°
Maximum altitude 18:59:14 32° 191° (SSW) 3,204 11.4 57.7°
Drops below altitude 10° 19:07:27 10° 133° (SE) 3,585 11.0 57.9°
Sets 19:10:10 0° 122° (ESE) 4,207 11.1 58.0°
